Content
SEND FEEDBACK

Daily
Averages
Monthly
Summary
United States of America

CASTLE HAYNE, NORTH CAROLINA


Home > North America > United States > North Carolina
Elevation: 35 feet     Latitude: 34 19N     Longitude: 077 55W

WEATHER
 
SELECT A DAY
Number of Records: 208,938;   Date Range: 1/1/95 - 8/12/14
 
SHARE

PRINT THIS DATA

[ ← Previous Day ]
WEATHER ALMANAC - OCTOBER 1, 2013
[ Next Day → ]
[ °C ]   °F
Weather ElementAverageHighLow
Temperature66.4 °F81 °F (3:53 pm)53.1 °F (3:53 am)
Dewpoint54.5 °F59 °F (7:53 pm)50 °F (3:53 am)
Humidity68.9 %90 % (1:53 am)40 % (1:53 pm)
Barometer30.08 in30.13 in (9:53 am)30.04 in (3:53 pm)
Wind Speed2.7 mph9.2 mph (1:53 pm)
Wind Gust16.1 mph (12:53 pm)
Weather ElementAverage
Visibility10 mi
Wind DirectionNNE (36.5 °)

Weather ElementTotal
Precipitation---
Cooling Degree Days2.1 (Base 65)
Growing Degree Days17.1 (Base 50)
Averaged from 23 records on October 1, 2013
WEATHER CONDITIONS BREAKOUT
WIND DIRECTION BREAKOUT
WEATHER BY HOUR - OCTOBER 1, 2013
[ °C ]   °F
Local TimeTemperatureDewpointHumidityBarometerVisibilityWind DirectionWind SpeedGust SpeedPrecipitationEventsConditions
1:53 AM55.9 °F53.1 °F90 %30.06 in10.0 miCalmClear
2:53 AM55.0 °F52.0 °F89 %30.05 in10.0 miCalmClear
3:53 AM53.1 °F50.0 °F89 %30.05 in10.0 miCalmClear
4:53 AM55.0 °F51.1 °F86 %30.06 in10.0 miCalmClear
5:53 AM55.0 °F51.1 °F86 %30.07 in10.0 miCalmClear
6:53 AM53.1 °F50.0 °F89 %30.10 in10.0 miCalmClear
7:53 AM55.0 °F52.0 °F89 %30.12 in10.0 miCalmClear
8:53 AM64.0 °F55.0 °F73 %30.12 in10.0 miCalmClear
9:53 AM71.1 °F54.0 °F55 %30.13 in10.0 miNNW (340°)5.8 mphClear
10:53 AM75.0 °F54.0 °F48 %30.13 in10.0 miNorth (10°)6.9 mphClear
11:53 AM77.0 °F53.1 °F43 %30.12 in10.0 miNorth (10°)4.6 mphClear
12:53 PM79.0 °F55.0 °F44 %30.10 in10.0 miVariable4.6 mph16.1 mphPartly Cloudy
1:53 PM79.0 °F53.1 °F40 %30.07 in10.0 miNE (40°)9.2 mph16.1 mphClear
2:53 PM80.1 °F54.0 °F40 %30.06 in10.0 miVariable6.9 mphClear
3:53 PM81.0 °F55.0 °F41 %30.04 in10.0 miNE (40°)5.8 mphPartly Cloudy
4:53 PM77.0 °F55.9 °F48 %30.04 in10.0 miESE (120°)6.9 mphClear
5:53 PM75.0 °F55.9 °F51 %30.05 in10.0 miSE (140°)5.8 mphClear
6:53 PM72.0 °F57.0 °F59 %30.06 in10.0 miSE (140°)4.6 mphClear
7:53 PM66.0 °F59.0 °F78 %30.08 in10.0 miCalmClear
8:53 PM64.9 °F59.0 °F81 %30.09 in10.0 miCalmClear
9:53 PM62.1 °F57.9 °F86 %30.10 in10.0 miCalmClear
10:53 PM61.0 °F57.9 °F90 %30.11 in10.0 miCalmClear
11:53 PM61.0 °F57.9 °F90 %30.10 in10.0 miCalmClear
Hourly data recorded from KILM, located miles away from Castle Hayne, North Carolina







STORIES FROM OUR PARTNERS